Weather Roundup
Issued by NWS Chicago, IL

Home | Current Version | Previous Version | Graphics & Text | Print | Product List | Glossary On
Versions: 1 2 3 4 5 6 7 8 9 10 11 12 13 14 15 16 17 18 19 20 21 22 23 24 25 26 27 28 29 30 31 32 33 34 35 36 37 38 39 40 41 42 43 44 45 46 47 48 49 50
000
NZUS59 KLOT 252004
HRRLOT

CHICAGO AREA WEATHER ROUNDUP
NATIONAL WEATHER SERVICE CHICAGO/ROMEOVILLE IL
300 PM CDT SUN SEP 25 2016

NOTE: "FAIR" INDICATES FEW OR NO CLOUDS BELOW 12,000 FEET WITH NO
SIGNIFICANT WEATHER AND/OR OBSTRUCTIONS TO VISIBILITY.

* THESE STATIONS ARE NOT UNDER NWS QUALITY CONTROL. THEY ALSO MAY NOT
  REPORT WEATHER SUCH AS PRECIPITATION OR FOG.

ILZ005-006-012>014-019>023-252100-
NORTHEAST ILLINOIS

CITY           SKY/WX    TMP DP  RH WIND       PRES   REMARKS
OHARE          PTSUNNY   85  67  54 S15       29.94F HX  87
MIDWAY         PTSUNNY   85  65  51 S10       29.94F THUNDER HX  86
AURORA         MOSUNNY   90  66  45 S12G21    29.93F HX  92
LANSING*       PTSUNNY   85  69  57 S9        29.96F HX  89
WAUKEGAN       SUNNY     75  64  68 SE13      29.93F
DUPAGE AIRPORT MOSUNNY   85  68  56 S15       29.93F HX  88
WHEELING       MOSUNNY   85  66  53 S15       29.95F HX  87
KANKAKEE*      LGT RAIN  79  67  67 W12G23    29.99R HX  81
NORTHERLY ISL    N/A     75  66  73 S5          N/A
$$

WIZ051-052-058>065-066-070>072-252100-
SOUTHEAST WISCONSIN

CITY           SKY/WX    TMP DP  RH WIND       PRES   REMARKS
MILWAUKEE      MOSUNNY   75  64  68 SE18      29.92F
KENOSHA*       SUNNY     78  66  66 SE12      29.93F HX  80
RACINE*        SUNNY     73  63  70 SE17      29.95F
WAUKESHA       PTSUNNY   81  66  61 SE12      29.91F HX  83
WEST BEND      CLOUDY    72  63  73 SE6       29.91F
$$

INZ001>003-010>013-019-020-252100-
NORTHWEST INDIANA

CITY           SKY/WX    TMP DP  RH WIND       PRES   REMARKS
GARY*          PTSUNNY   86  66  51 SE9       29.97F HX  88
MICHIGAN CITY* NOT AVBL
RENSSELAER*    NOT AVBL
VALPARAISO     MOSUNNY   86  64  47 S9        29.99F HX  87
$$

LMZ740>746-252100-
SOUTHERN LAKE MICHIGAN

STATION/POSITION TIME  SKY/WX   TEMP WIND        PRES    VSBY
                                AIR  DIR/SP/G
                 (UTC)          (F)  (DEG/KT/KT) (MB)    (MI)
HARRISON CRIB    1900            74  130/ 15/ 16   N/A
BURNHAM HARBOR   2000            74  100/  2/  9   N/A
CALUMET HARBOR   1900            82  150/ 10/ 12 1015.0F
BURNS HARBOR     1900            82  180/  8/ 16 1016.3F
MICHIGAN CITY    1900            81  140/  7/ 10   N/A
$$

ABBREVIATIONS USED IN REMARKS
   TC - TEMPERATURE IN CELSIUS
  WCI - WIND CHILL INDEX
   HX - HEAT INDEX
  VSB - VISIBILITY
$$



USA.gov is the U.S. government's official web portal to all federal, state and local government web resources and services.